This is the latest recevied weather packets stored in our database for station/object W0RMT-13. If no packets are shown the sender has not sent any weather packets the latest 10 day(s).
| Time | Temp. | Humidity | Pressure | Rain* | Wind** | Luminosity | Snow |
|---|---|---|---|---|---|---|---|
| 1777963192 | 7.22° C | 99% | 1011 hPa | 0 mm | - | 0 W/m² | - |
| 1777962551 | 7.22° C | 99% | 1011 hPa | 0 mm | - | 0 W/m² | - |
| 1777961876 | 7.22° C | 99% | 1011 hPa | 0 mm | - | 0 W/m² | - |
| 1777961228 | 7.22° C | 99% | 1011.5 hPa | 0 mm | - | 0 W/m² | - |
| 1777960616 | 6.67° C | 99% | 1011 hPa | 0 mm | - | 0 W/m² | - |
| 1777960006 | 6.67° C | 99% | 1011 hPa | 0 mm | - | 0 W/m² | - |
| 1777959336 | 7.22° C | 99% | 1011 hPa | 0 mm | - | 0 W/m² | - |
| 1777958721 | 7.22° C | 99% | 1011 hPa | 0 mm | - | 0 W/m² | - |
| 1777958042 | 7.22° C | 99% | 1011 hPa | 0 mm | - | 0 W/m² | - |
| 1777957393 | 7.22° C | 99% | 1010.7 hPa | 0 mm | - | 0 W/m² | - |
| 1777956772 | 7.22° C | 98% | 1011 hPa | 0.25 mm | - | 0 W/m² | - |
| 1777956127 | 7.78° C | 98% | 1011 hPa | 0.25 mm | - | 0 W/m² | - |
| 1777955454 | 7.78° C | 98% | 1011.5 hPa | 0.25 mm | - | 0 W/m² | - |
| 1777954893 | 7.78° C | 98% | 1011.5 hPa | 0.51 mm | - | 0 W/m² | - |
| 1777954208 | 7.78° C | 98% | 1011.5 hPa | 0.76 mm | - | 0 W/m² | - |
| 1777953532 | 8.33° C | 97% | 1011.5 hPa | 1.78 mm | - | 0 W/m² | - |
| 1777952851 | 8.33° C | 97% | 1011.5 hPa | 2.29 mm | - | 0 W/m² | - |
| 1777952191 | 8.33° C | 97% | 1011.5 hPa | 2.54 mm | - | 0 W/m² | - |
| 1777951561 | 8.33° C | 96% | 1011.5 hPa | 3.05 mm | - | 0 W/m² | - |
| 1777950918 | 8.89° C | 95% | 1011.5 hPa | 2.54 mm | - | 0 W/m² | - |
| 1777950248 | 9.44° C | 94% | 1011.5 hPa | 2.03 mm | - | 0 W/m² | - |
| 1777949509 | 9.44° C | 89% | 1011 hPa | 0.76 mm | - | 0 W/m² | - |
| 1777948797 | 10° C | 84% | 1011 hPa | 0.51 mm | - | 0 W/m² | - |
| 1777948191 | 10° C | 81% | 1010.2 hPa | 0 mm | - | 0 W/m² | - |
| 1777947569 | 10° C | 80% | 1010.2 hPa | 0 mm | - | 0 W/m² | - |
* Rain latest hour (hover to see other rain measurements)
** Current wind speed in m/s (hover to see current wind gust speed)